Accueil
METAR-TAF:

METAR-TAF

Aéroports :

Kekaha, Hawaï, États-Unis

Pacific Missile Range Facility

latitude: 22-02-11N, longitude: 159-47-11W, altitude: 4 m

Observation

Le bulletin a été fait il y a 47 minutes, à 08:56 UTC
Vent 4 kt de est/nord-est
Température 19°C
Humidité 88%
Pression 1015 hPa
Visibilité: 16.1 km
Ciel clair

METAR: PHBK 240856Z AUTO 07004KT 10SM CLR 19/17 A2998 RMK AO2 SLP153 T01940172 50001 $

Heure: 23:43 (09:43 UTC)


TAF: absent

Observations et prévisions météorologiques de plus de 4000 aéroports (messages METAR et TAF).

Les stations disponibles sont représentées par des disques jaunes et rouges sur la carte.

Passer la souris dessus pour voir le nom de la station.

Cliquer dessus pour voir les observations et prévisions météorologiques.

Pour changer de carte: cliquez sur les boutons verts avec une croix noire pour zoomer, sur le bouton vert avec un tiret pour effectuer un zoom arrière, ou sur les flèches vertes pour les cartes adjacentes.


METAR-TAF: